Location: Taupo
(38.6830°S, 176.0830°E)
Time: 22:35:00
(UTC+12:00)

Daily predictions for brighter satellites

Satellite Brightness Start Highest point End
(mag) Time Altitude Azimuth Time Altitude Azimuth Time Altitude Azimuth
Cosmos 1844 Rocket 3.5 17:32:26 10° SSW 17:37:59 58° WNW 17:43:26 10° N
NOSS 0 Rocket 4.4 17:33:14 10° N 17:39:03 43° ENE 17:44:55 10° SE
Cosmos 2278 Rocket 3.2 17:34:55 10° S 17:39:36 25° SE 17:44:14 10° ENE
COSMOS 2428 2.8 17:39:06 10° NNW 17:44:49 86° WSW 17:50:36 10° SSE
Cosmos 1354 Rocket 4.4 17:44:01 10° S 17:49:07 43° ESE 17:54:05 10° NE
Cosmos 2219 Rocket 2.7 17:45:25 10° NNW 17:50:58 63° WSW 17:56:35 10° SSE
Cosmos 2360 Rocket 4.2 17:46:24 10° WNW 17:50:58 25° SW 17:55:35 10° S
Lacrosse 5 3.7 17:49:24 10° SSW 17:52:25 15° SSE 17:55:25 10° ESE
Cosmos 1953 Rocket 4.1 17:48:13 10° NNW 17:52:39 67° W 17:57:12 10° S
Nadezhda 4 Rocket 4.2 17:47:01 10° N 17:53:09 79° W 17:59:25 10° S
Cosmos 1092 Rocket 4.0 17:47:56 10° N 17:54:01 62° E 18:00:14 10° SSE
USA 276 2.5 17:51:10 10° SW 17:54:19 47° SSE 17:57:25 10° ENE
H-2A R/B 4.2 17:57:02 11° E 17:57:29 11° E 17:58:37 10° ENE
Cosmos 2058 2.9 17:55:12 10° N 17:59:17 65° E 18:03:27 10° SSE
IRIDIUM 114 4.4 17:54:05 10° S 17:59:20 60° E 18:04:30 10° NNE
Meteor 2-8 Rocket 4.4 17:55:34 10° S 18:01:49 76° E 18:07:58 10° NNE
SMAP 3.7 17:58:21 10° SSE 18:02:41 35° E 18:06:58 10° NNE
Atlas Centaur 2 3.3 17:58:16 10° WNW 18:03:13 38° N 18:09:24 10° ENE
Cosmos 2026 Rocket 4.1 17:57:36 10° N 18:03:52 59° E 18:10:10 10° SSE
COSMO-SKYMED 1 4.0 17:59:46 10° N 18:03:55 43° W 18:08:07 10° SSW
CSL-04 DEB 4.2 18:01:03 10° NNE 18:04:58 73° ESE 18:08:58 10° S
CZ-2C R/B 2.8 18:00:15 10° NNE 18:05:50 66° ESE 18:11:27 10° S
H-2A R/B 4.1 18:02:11 10° NNW 18:05:57 32° W 18:09:42 10° SW
DMSP B5D1-3 4.5 18:02:50 10° NNE 18:07:56 70° ESE 18:13:08 10° S
IRIDIUM 103 4.3 18:03:09 10° S 18:08:28 73° E 18:13:42 10° N
Cosmos 1825 2.3 18:05:33 10° N 18:09:20 77° W 18:13:10 10° S
USA 234 3.5 18:03:34 10° SE 18:10:09 70° SW 18:16:40 10° WNW
Cosmos 1408 4.4 18:09:26 10° NW 18:12:52 35° WSW 18:16:23 10° S
Cosmos 405 Rocket 2.5 18:11:19 10° N 18:15:02 77° E 18:18:53 10° SSE
Cosmos 1980 3.7 18:09:25 10° N 18:15:02 65° ENE 18:20:41 10° SSE
Cosmos 1842 Rocket 3.5 18:10:50 10° S 18:15:18 65° E 18:19:45 10° NNE
NOAA 6 4.0 18:14:37 10° SSE 18:19:49 69° ENE 18:24:55 10° N
Envisat 4.0 18:14:54 10° S 18:19:52 50° WSW 18:24:47 10° NNW
FengYun 1-2 T 4.4 18:16:52 10° SSE 18:22:16 49° E 18:27:35 10° N
Radarsat Rocket 4.2 18:16:34 10° SSE 18:22:25 48° E 18:28:01 10° N
Cosmos 1356 3.8 18:21:19 10° NNW 18:24:43 65° W 18:28:10 10° S
SL-16 R/B 3.2 18:22:32 10° NNE 18:27:01 25° E 18:28:39 22° ESE
Cosmos 1437 Rocket 2.9 18:24:44 10° S 18:28:26 45° ESE 18:32:05 10° NNE
CZ-4B R/B 3.4 18:27:00 10° NNW 18:29:43 29° W 18:32:31 10° SW
MOS 1-B 4.4 18:24:06 10° SSE 18:29:54 59° ENE 18:35:39 10° N
Cosmos 2221 2.6 18:26:31 10° S 18:30:52 81° W 18:35:08 10° N
CZ-4B DEB 4.1 18:25:23 10° SSE 18:30:57 77° ENE 18:36:25 10° N
Cosmos 1689 Rocket 1.8 18:32:04 10° NNE 18:34:54 65° ESE 18:37:48 10° S
Cosmos 1606 2.7 18:31:42 10° S 18:35:30 55° E 18:39:13 10° NNE
SL-8 R/B 4.1 18:30:57 10° WNW 18:35:46 60° SSW 18:38:38 24° SE
USA 102 3.8 18:30:10 10° NE 18:37:14 51° ESE 18:38:01 46° SE
ATLAS 3B R/B 3.2 18:30:14 10° NW 18:37:44 70° SW 18:45:08 10° SSE
Meteor 2-15 Rocket 4.4 18:36:44 10° S 18:42:55 88° W 18:49:01 10° N
Cosmos 2333 Rocket 4.4 18:39:28 10° WNW 18:43:43 21° SW 18:48:01 10° S
Cosmos 1076 Rocket 3.8 18:45:02 10° NNW 18:49:17 67° W 18:53:38 10° S
Cosmos 1900 4.5 18:44:49 10° SSW 18:49:50 54° ESE 18:52:13 29° ENE
Cosmos 1461 3.8 18:46:50 10° SSW 18:50:14 32° SE 18:50:14 32° SE
Cosmos 1553 Rocket 3.8 18:47:00 10° S 18:53:10 71° E 18:59:13 10° NNE
Cosmos 1777 Rocket 3.9 18:48:57 10° SSW 18:54:18 79° ESE 18:59:32 10° NNE
H-2A R/B 3.8 19:00:07 16° NE 19:00:07 16° NE 19:01:18 10° NNE
Cosmos 2237 Rocket 2.7 18:51:48 10° NW 18:57:23 60° WSW 19:03:04 10° SSE
Cosmos 1809 Rocket 4.4 18:55:24 10° N 19:01:37 84° E 19:07:54 10° S
Cosmos 2151 2.9 18:58:55 10° N 19:03:08 89° W 19:05:43 24° S
CZ-2C R/B 2.7 18:59:03 14° SSE 19:03:14 80° ENE 19:08:01 10° N
CORIOLIS 4.4 18:58:54 10° S 19:04:24 72° WSW 19:09:50 10° NNW
ERS-2 2.3 19:01:46 10° N 19:05:24 71° WNW 19:09:08 10° SSW
CZ-2D R/B 3.7 19:08:10 48° NNE 19:08:10 48° NNE 19:11:07 10° N
Cosmos 1417 Rocket 4.4 19:01:26 10° S 19:07:53 79° E 19:14:13 10° N
Okean O Rocket 1.5 19:06:03 27° SSE 19:08:30 89° ENE 19:12:59 10° NNW
SJ 16-02 2.7 19:04:18 10° S 19:06:30 26° S 19:06:30 26° S
Cosmos 1633 3.5 19:09:04 10° NNW 19:12:30 46° W 19:14:15 25° SSW
Cosmos 1943 Rocket 3.8 19:13:46 10° S 19:15:55 20° SSE 19:15:55 20° SSE
Cosmos 1655 Rocket 3.9 19:13:36 10° N 19:19:55 83° E 19:26:22 10° S
Cosmos 2278 Rocket 3.2 19:18:26 10° SW 19:23:53 46° WNW 19:29:16 10° N
Meteor 2-3 Rocket 3.7 19:20:06 10° N 19:25:42 86° W 19:29:42 21° S
Cosmos 1939 Rocket 4.3 19:23:02 13° S 19:26:28 38° WSW 19:30:20 10° NW
CZ-4B R/B 3.7 19:25:03 10° S 19:30:18 57° WSW 19:35:30 10° NNW
Meteor 2-16 Rocket 4.3 19:25:57 10° N 19:32:03 79° E 19:33:54 48° SSE
H-2A R/B 3.4 19:33:35 44° W 19:33:35 44° W 19:36:54 10° NW
Lacrosse 5 2.8 19:31:23 10° SW 19:34:45 37° SSW 19:34:45 37° SSW
Atlas Centaur 2 3.7 19:46:29 10° WNW 19:52:00 33° N 19:52:49 32° N
SL-16 R/B 3.2 20:05:26 10° NW 20:10:35 43° WSW 20:10:35 43° WSW
